KC9AVZ Weather Reports


Display with metric or nautical units.
time (UTC)temp
F
wind
direction
speed
MPH
gust
MPH
rain 1hr
in
rain 24hr
in
rain mn
in
humidity
%
barometer
mb
20260906130056 66 151 1.0 2.0 0.00 0.00 0.00 94 1020.7
20260906120046 63 333 0.0 2.0 0.00 0.00 0.00 97 1019.9
20260906110052 63 333 0.0 0.0 0.00 0.00 0.00 96 1019.1
20260906100044 63 333 0.0 0.0 0.00 0.00 0.00 96 1019.2
20260906090042 63 294 0.0 0.0 0.00 0.00 0.00 94 1018.9
20260906080054 64 237 0.0 0.0 0.00 0.00 0.00 96 1018.8
20260906070039 63 237 0.0 0.0 0.00 0.00 0.00 96 1018.5
20260906060034 64 237 0.0 0.0 0.00 0.00 0.00 95 1018.6
20260906050039 63 333 0.0 0.0 0.00 0.00 0.00 95 1018.4
20260906040109 64 333 0.0 0.0 0.00 0.00 0.00 93 1018.0
20260906030037 66 333 0.0 0.0 0.00 0.00 0.00 91 1018.1
20260906020037 68 333 0.0 0.0 0.00 0.00 0.00 90 1017.6
20260906010055 70 333 0.0 0.0 0.00 0.00 0.00 90 1017.5
20260906000045 71 333 0.0 2.0 0.00 0.00 0.00 87 1017.6
20260905230057 71 333 0.0 2.0 0.00 0.00 0.00 89 1017.5
20260905220046 73 151 1.0 2.0 0.00 0.00 0.00 89 1016.9
20260905210038 73 333 1.0 2.0 0.00 0.00 0.00 89 1017.0
20260905200044 72 333 1.0 2.0 0.00 0.00 0.00 92 1016.8
20260905190045 73 333 1.0 2.0 0.00 0.00 0.00 90 1017.0
20260905180047 74 333 1.0 2.0 0.00 0.00 0.00 89 1016.9
20260905170104 76 151 1.0 2.0 0.00 0.00 0.00 86 1016.8
20260905160043 74 333 1.0 2.0 0.00 0.00 0.00 88 1016.9
20260905150059 73 333 1.0 2.0 0.00 0.00 0.00 90 1016.4
20260905140044 71 333 1.0 2.0 0.00 0.18 0.00 95 1016.0